Weather History for Garrison, ND

Change the Weather History Date:

Thursday, November 8, 2012

  Actual Average Record
Temperature  
Mean Temperature 41 °F -  
Max Temperature 48 °F 38 °F 73 °F (1999)
Min Temperature 33 °F 19 °F 3 °F (2008)
Degree Days  
Heating Degree Days 24    
Month to date heating degree days 241  
Moisture  
Dew Point 30 °F    
Average Humidity 82    
Maximum Humidity 92    
Minimum Humidity 71    
Precipitation  
Precipitation 0.01 in - - ()
Month to date precipitation 0.33  
Year to date precipitation 15.74  
Sea Level Pressure  
Sea Level Pressure 30.07 in    
Wind  
Wind Speed 14 mph (NNE)    
Max Wind Speed 26 mph    
Max Gust Speed 32 mph    
Averages and records for this station are not official NWS values.
T = Trace of Precipitation, MM = Missing Value Source: NWS Daily Summary

Daily Weather History Graph

Daily Weather History Graph

Search for Another Location

Airport:

Trip Planner

Search our weather history database for the weather conditions in past years. The results will help you decide how hot, cold, wet, or windy it might be!

Date:

Astronomy

Nov. 08, 2012 Rise Set
Actual Time 7:41 AM CST 5:17 PM CST
Civil Twilight 7:08 AM CST 5:50 PM CST
Nautical Twilight 6:31 AM CST 6:27 PM CST
Astronomical Twilight 5:55 AM CST 7:03 PM CST
Moon 1:14 AM CST (11/8) 2:20 PM CST (11/8)
Length of Visible Light 10h 41m
Length of Day
9h 35m
Waning Crescent, 32% of the Moon is Illuminated
Nov 8
Waning Crescent
Nov 13
New
Nov 20
First Quarter
Nov 28
Full
Dec 6
Last Quarter

Hourly Weather History & Observations

Time (CST) Temp. Windchill Dew Point Humidity Pressure Visibility Wind Dir Wind Speed Gust Speed Precip Events Conditions
12:52 AM 46.0 °F 41.9 °F 37.0 °F 71% 29.79 in - WNW 8.1 mph - N/A   Unknown
1:52 AM 46.9 °F - 41.0 °F 80% 29.77 in - NNW 16.1 mph - N/A   Unknown
2:52 AM 43.0 °F 34.2 °F 37.9 °F 82% 29.83 in - NW 20.7 mph 28.8 mph 0.01 in   Unknown
3:52 AM 39.0 °F 29.0 °F 35.1 °F 86% 29.89 in - NW 20.7 mph 28.8 mph N/A   Unknown
4:52 AM 36.0 °F 26.0 °F 33.1 °F 89% 29.94 in - NW 17.3 mph 31.1 mph N/A   Unknown
5:52 AM 37.0 °F 26.4 °F 33.1 °F 86% 29.97 in - NW 20.7 mph 29.9 mph N/A   Unknown
6:52 AM 36.0 °F 24.4 °F 30.9 °F 82% 30.00 in - NNW 23.0 mph 29.9 mph N/A   Unknown
7:52 AM 35.1 °F 24.5 °F 30.0 °F 82% 30.04 in - North 18.4 mph 24.2 mph N/A   Unknown
8:52 AM 35.1 °F 25.5 °F 30.9 °F 85% 30.07 in - NNW 15.0 mph - N/A   Unknown
9:52 AM 35.1 °F 27.4 °F 30.9 °F 85% 30.09 in - North 10.4 mph - N/A   Unknown
10:52 AM 36.0 °F 27.1 °F 30.0 °F 79% 30.12 in - NNE 13.8 mph 20.7 mph N/A   Unknown
11:52 AM 36.0 °F 27.5 °F 28.9 °F 76% 30.14 in - NNE 12.7 mph - N/A   Unknown
12:52 PM 35.1 °F 26.4 °F 28.9 °F 78% 30.12 in - NNE 12.7 mph 20.7 mph N/A   Unknown
1:52 PM 35.1 °F 26.4 °F 28.9 °F 78% 30.13 in - NNE 12.7 mph 18.4 mph N/A   Unknown
2:52 PM 36.0 °F 30.3 °F 28.9 °F 76% 30.16 in - NNE 6.9 mph - N/A   Unknown
3:52 PM 35.1 °F 28.6 °F 28.0 °F 76% 30.14 in - NE 8.1 mph - N/A   Unknown
4:52 PM 34.0 °F 27.2 °F 28.0 °F 79% 30.14 in - ENE 8.1 mph - N/A   Unknown
5:52 PM 34.0 °F 26.0 °F 28.0 °F 79% 30.15 in - NE 10.4 mph - N/A   Unknown
6:52 PM 33.1 °F 25.5 °F 27.0 °F 78% 30.15 in - NE 9.2 mph - N/A   Unknown
7:52 PM 32.0 °F 22.5 °F 26.1 °F 79% 30.19 in - East 12.7 mph - N/A   Unknown
8:52 PM 30.9 °F 20.7 °F 25.0 °F 79% 30.19 in - East 13.8 mph - N/A   Unknown
9:52 PM 30.0 °F 19.1 °F 24.1 °F 79% 30.21 in - East 15.0 mph - N/A   Unknown
10:52 PM 28.0 °F 16.5 °F 23.0 °F 81% 30.21 in - East 15.0 mph 21.9 mph N/A   Unknown
11:52 PM 27.0 °F 16.1 °F 23.0 °F 85% 30.22 in - ENE 12.7 mph 18.4 mph N/A   Unknown